Back to catalog

ASTROCAST-0402

AliveCommunicationsSSO
NORAD 55109·PAYLOAD·🇨🇭 Switzerland

Launched Jan 3, 2023 from Cape Canaveral Space Force Station

Loading…

Next Passes (next 24 hours)

TLE

FreshSource: Space-Track

Epoch: Sep 14, 2026, 05:08 UTC

1 55109U 23001DE  26257.21423326  .00009662  00000-0  32909-3 0  9990
2 55109  97.5574 351.8619 0003062 281.8763  78.2134 15.30608385158141

Track ASTROCAST-0402 in real time with AllMySat

Download on the App Store